Tracking 19562 objects as of 24-Mar-2019
HD Live streaming from Space Station
objects crossing your sky now

SECOR 1B

Track SECOR 1B now!
10-day predictions
SECOR 1B is classified as:


NORAD ID: 729
Int'l Code: 1964-001C
Perigee: 906.9 km
Apogee: 930.5 km
Inclination: 69.9 °
Period: 103.2 minutes
Semi major axis: 7289 km
RCS: 0.2364 m2 (medium)
Launch date: January 11, 1964
Source: United States (US)
Launch site: AIR FORCE WESTERN TEST RANGE (AFWTR)
aabbcc
Your satellite tracking list
Your tracking list is empty




NASA's NSSDC Master Catalog

Two Line Element Set (TLE):
1   729U 64001C   19083.51323952 -.00000022  00000-0  23168-4 0  9999
2   729  69.9012 197.5952 0016198 230.1259 129.8422 13.94890542808843
Source of the keplerian elements: AFSPC